Hourly Data Report for March 14, 2020

All times are specified in Local Standard Time (LST). Add 1 hour to adjust for Daylight Saving Time where and when it is observed.

OTTAWA INTL A
ONTARIO
Current Station Operator: NAVCAN

45°19'00.000" N
75°40'00.000" W
114.90 m
6106001
71628
YOW

Download Data

Hourly Data (March 2020)
Hourly Data Report for March 14, 2020
TIME Temp Definition
°C
Dew Point Definition
°C
Rel Hum Definition
%
Wind Dir Definition
10's deg

Wind Spd Definition
km/h
Visibility Definition
km
Stn Press Definition
kPa
Hmdx Definition


Wind Chill Definition


Weather Definition


00:00 2.2 -4.5 61 26 32 24.1 99.97     LegendNANA
01:00 2.2 -5.0 59 27 40 24.1 100.10     Cloudy
02:00 1.6 -5.3 60 28 36 24.1 100.26     LegendNANA
03:00 1.1 -5.4 62 26 31 24.1 100.33     LegendNANA
04:00 1.1 -5.6 61 26 32 24.1 100.48     Snow Showers
05:00 1.0 -5.3 63 26 31 24.1 100.60     LegendNANA
06:00 1.1 -5.3 62 28 30 24.1 100.72     LegendNANA
07:00 1.1 -5.4 62 27 25 24.1 100.84     Mostly Cloudy
08:00 1.2 -5.2 62 27 29 24.1 100.92     LegendNANA
09:00 1.5 -5.3 60 28 31 24.1 101.00     LegendNANA
10:00 1.9 -5.7 58 29 36 24.1 101.05     Mostly Cloudy
11:00 2.3 -6.0 54 29 42 24.1 101.11     LegendNANA
12:00 2.9 -6.3 51 28 37 24.1 101.16     LegendNANA
13:00 3.1 -7.1 47 28 44 24.1 101.16     Mainly Clear
14:00 3.8 -6.4 47 28 30 24.1 101.20     LegendNANA
15:00 3.9 -8.1 41 28 35 24.1 101.24     LegendNANA
16:00 4.2 -8.1 40 27 31 24.1 101.29     Mostly Cloudy
17:00 3.6 -7.7 43 27 18 24.1 101.34     LegendNANA
18:00 3.1 -9.0 41 28 16 24.1 101.41     LegendNANA
19:00 2.2 -9.3 43 32 19 24.1 101.52     Mostly Cloudy
20:00 2.0 -11.4 36 33 27 24.1 101.65     LegendNANA
21:00 1.0 -11.5 39 34 22 24.1 101.64     LegendNANA
22:00 0.1 -12.6 38 35 22 24.1 101.72     Mostly Cloudy
23:00 -1.4 -12.7 42 32 21 24.1 101.77   -7 LegendNANA

Notes on Data Quality.

Legend

  • E = Estimated
  • M = Missing
  • NA = Not Available*
  • [empty] = Indicates an unobserved value
Date modified: